Regional Weather Roundup
Issued by NWS

Home | Current Version | Previous Version | Text Only | Print | Product List | Glossary On
Versions: 1 2 3 4 5 6 7 8 9 10 11 12 13 14 15 16 17 18 19 20 21 22 23 24 25 26 27 28 29 30 31 32 33 34 35 36 37 38 39 40 41 42 43 44 45 46 47 48 49 50
000
ASUS46 KSTO 270315
RWRCA

NORTHERN AND CENTRAL CA REGIONAL WEATHER ROUNDUP
NATIONAL WEATHER SERVICE SACRAMENTO CA
800 PM PDT THU APR 26 2018

NOTE: FAIR INDICATES FEW OR NO CLOUDS BELOW 12,000 FEET WITH NO
SIGNIFICANT WEATHER AND/OR OBSTRUCTIONS TO VISIBILITY.

CAZ001-003-270400-
NORTHWEST AREA

CITY           SKY/WX    TMP DP  RH WIND       PRES   REMARKS
CRESCENT CITY  CLOUDY    52  47  83 CALM      30.01S
UKIAH          CLEAR     60  44  55 N7        29.92R
$$

CAZ006-505>513-270400-
BAY AREA

CITY           SKY/WX    TMP DP  RH WIND       PRES   REMARKS
SANTA ROSA     CLEAR     54  46  74 S8        29.94R
SAN RAFAEL     N/A       56  MM  MM MISG
NAPA           CLEAR     53  45  74 W16G22    29.95R
CONCORD        CLEAR     57  45  64 SW9       29.96R
OAKLAND CITY   N/A      MM  MM  MM MISG
OAKLAND        MOCLDY    54  47  77 W18       29.99R
SAN FRAN CITY  N/A       53  MM  71 MISG
SAN FRAN ARPT  MOCLDY    55  44  66 SW15      29.99R
LIVERMORE      CLEAR     52  47  83 W17       29.96R
HAYWARD        MOCLDY    55  43  63 W14       30.00R
REDWOOD CITY   N/A       54  MM  70 MISG
MOFFETT ARPT   CLEAR     56  43  61 NW10      29.99R
SAN JOSE ARPT  PTCLDY    57  47  69 NW14      29.98R
$$
CAZ034-037-514>518-270400-
CENTRAL COAST

CITY           SKY/WX    TMP DP  RH WIND       PRES   REMARKS
WATSONVILLE    MOCLDY    52  47  83 SW3       30.02R
SALINAS        CLOUDY    55  46  71 W12       30.01S
MONTEREY       CLOUDY    54  46  74 SW12      30.03R
SAN LUIS OBISP MOCLDY    53  47  79 NW8       30.02R
SANTA MARIA    CLOUDY    54  47  77 NW9       30.03R
$$
CAZ015-016-270400-
NORTHERN SACRAMENTO VALLEY

CITY           SKY/WX    TMP DP  RH WIND       PRES   REMARKS
REDDING        CLEAR     74  54  49 S7        29.80S
RED BLUFF      CLEAR     73  53  49 SE7       29.81S
OROVILLE       CLEAR     72  49  44 SE9       29.86R
$$
CAZ016>018-270400-
SOUTHERN SACRAMENTO VALLEY

CITY           SKY/WX    TMP DP  RH WIND       PRES   REMARKS
AUBURN         CLEAR     64  45  48 S7        29.92S
BEALE AFB      CLEAR     63  50  61 S12       29.85R
LINCOLN        FAIR      63  46  55 S7        29.87R
MARYSVILLE     CLEAR     66  52  60 S12       29.86R
SAC INTL ARPT  CLEAR     61  48  62 S18       29.87R
MATHER AIRPORT CLEAR     66  50  55 S7        29.89R
DOWNTOWN SAC   N/A       61  MM  MM MISG
SAC EXEC ARPT  CLEAR     58  48  69 S10       29.89R
VACAVILLE      CLEAR     59  46  62 SW14G22   29.89R
TRAVIS AFB     CLEAR     55  46  72 W24       29.89R
$$
CAZ019>021-270400-
SAN JOAQUIN VALLEY

CITY           SKY/WX    TMP DP  RH WIND       PRES   REMARKS
STOCKTON       CLEAR     65  45  48 W14       29.91R
MODESTO        CLEAR     66  44  45 NW16G24   29.88R
MERCED         CLEAR     73  50  44 N7        29.86R
LEMOORE        PTCLDY    76  48  37 N8        29.85R
FRESNO         CLEAR     80  46  30 NW10      29.85R
HANFORD        CLEAR     73  59  61 N3        29.85R
PORTERVILLE    CLEAR     78  51  38 CALM      29.86R
BAKERSFIELD    CLEAR     80  49  33 N7        29.84S
$$
CAZ011-012-071-270400-
NORTHERN MOUNTAINS

CITY           SKY/WX    TMP DP  RH WIND       PRES   REMARKS
YREKA          MOCLDY    72  35  25 SE9       29.82S
MOUNT SHASTA   PTCLDY    66  38  35 CALM      29.91R
ALTURAS        CLOUDY    71  38  29 SE5       29.91S
$$
CAZ011-012-071-270400-
SIERRA NEVADA MTNS

CITY           SKY/WX    TMP DP  RH WIND       PRES   REMARKS
BLUE CANYON    PTCLDY    55  45  68 CALM      30.05F
TRUCKEE        MOCLDY    52  46  82 E3        30.06S
TAHOE VLY ARPT PTCLDY    57  38  48 CALM      30.06S
MAMMOTH LAKES  FAIR      60  27  29 NW13G20   30.11R
$$




USA.gov is the U.S. government's official web portal to all federal, state and local government web resources and services.